Location: Calmejanne
(44.7523°N, 1.9418°E)
Time: 04:54:26
(UTC+00:00)

ALOS 2 - Pass Details

Date: 14 May 2026
Orbit: 630 x 632 km, 97.9° (Epoch: 6 June)

Event Time Altitude Azimuth Distance (km) Brightness Sun altitude
Exits shadow 22:33:06 30° 73° (ENE) 1,141 3.8 -24.1°
Maximum altitude 22:33:18 30° 68° (ENE) 1,137 3.9 -24.2°
Drops below altitude 10° 22:37:08 10° 7° (N) 2,023 6.0 -24.4°
Sets 22:39:32 0° 357° (N) 2,936 7.3 -24.5°
